sat.trackr.live / text

‹ back to catalog

ONEWEB-0451

NORAD 51643 · 2022-012X

PAYLOAD ACTIVE UNKNOWN

§ Identity

Operator
Country
UK
Launch date
2022-02-10
Launch site
FRGUI
Launch vehicle
Mass (kg)
RCS (m²)

Purposes: comms

External: N2YO · Heavens-Above · Gunter

§ Orbital elements

Epoch: 2026-05-25T02:58:55.549056Z

Period
109.29 min
Inclination
87.9164°
Eccentricity
0.0002068
Mean motion
13.17648852 rev/d
Perigee alt
1,192.1 km
Apogee alt
1,195.3 km
Semi-major
7,571.9 km
B*
6.7910e-5
RAAN
10.4273°
Arg perigee
86.0383°
Mean anomaly
274.0985°
Rev number
21,062

§ Raw data

ONEWEB-04511 51643U 22012X   26145.12425404  .00000039  00000+0  67910-4 0  99942 51643  87.9164  10.4273 0002068  86.0383 274.0985 13.17648852210628

JSON: /api/v1/satellites/51643 · /tle

For live sub-satellite position, see the globe view (requires WebGL).

§ Visibility from observer

Set your observer location to see the next 7 days of passes ≥ 10°. The values pass through the URL so the page stays shareable.

No JS? Fill the form by hand. The geolocation button needs JavaScript.